Location: Goheenville
(40.9070°N, 79.3720°W)
Time: 18:41:04
(UTC-04:00)

Meteor 2-10 Rocket - Visible Passes

Search period start: 25 May 2016 00:00
Search period end: 04 June 2016 00:00
Orbit: 733 x 886 km, 81.2° (Epoch: 25 May)

Date Brightness Start Highest point End Pass type
(mag) Time Alt. Az. Time Alt. Az. Time Alt. Az.
25 May 4.5 05:08:08 10° N 05:13:03 51° ENE 05:18:01 10° SSE visible
26 May 5.2 04:44:05 10° N 04:48:42 36° ENE 04:53:24 10° SE visible
27 May 5.7 04:20:08 10° NNE 04:24:20 26° ENE 04:28:33 10° SE visible
28 May 6.2 03:56:24 10° NNE 03:59:54 18° ENE 04:03:25 10° ESE visible
29 May 6.4 03:33:04 10° NE 03:35:25 13° ENE 03:37:47 10° E visible
29 May 3.5 05:12:57 10° NNW 05:18:00 71° W 05:23:10 10° S visible
30 May 3.6 04:48:40 10° N 04:53:45 81° E 04:58:58 10° SSE visible
31 May 4.2 04:24:27 10° N 04:29:28 56° ENE 04:34:36 10° SSE visible
01 Jun 4.8 04:00:22 10° N 04:05:08 39° ENE 04:10:02 10° SE visible
02 Jun 5.4 03:36:23 10° NNE 03:40:47 28° ENE 03:45:16 10° SE visible
03 Jun 5.9 03:12:35 10° NNE 03:16:22 20° ENE 03:20:14 10° ESE visible
03 Jun 3.9 04:53:45 10° NNW 04:58:37 45° W 05:03:38 10° SSW visible
